Weather History for KLGA - November, 2013

Change the Weather History Date:

Wednesday, November 20, 2013

  Actual Average Record
Temperature  
Mean Temperature 38 °F 47 °F  
Max Temperature 44 °F 53 °F 75 °F (1985)
Min Temperature 32 °F 41 °F 23 °F (1984)
Degree Days  
Heating Degree Days 27 18  
Month to date heating degree days 318 304  
Since 1 July heating degree days 520 576  
Cooling Degree Days 0 0  
Month to date cooling degree days 0 0  
Year to date cooling degree days 1402 1213  
Moisture  
Dew Point 16 °F    
Average Humidity 43    
Maximum Humidity 61    
Minimum Humidity 25    
Precipitation  
Precipitation 0.00 in 0.12 in 2.91 in (1988)
Month to date precipitation 0.47 2.22  
Year to date precipitation 31.53 39.98  
Snow  
Snow 0.00 in 0.00 in 0.40 in (1961)
Month to date snowfall T 0.1  
Since 1 July snowfall T 0.1  
Snow Depth 0.00 in    
Sea Level Pressure  
Sea Level Pressure 30.53 in    
Wind  
Wind Speed 9 mph (NNE)    
Max Wind Speed 21 mph    
Max Gust Speed 26 mph    
Visibility 10 miles    
Events      
T = Trace of Precipitation, MM = Missing Value Source: NWS Daily Summary

Daily Weather History Graph

Daily Weather History Graph

Search for Another Location

Airport or City:

Trip Planner

Search our weather history database for the weather conditions in past years. The results will help you decide how hot, cold, wet, or windy it might be!

Date:

Astronomy

Nov. 20, 2013 Rise Set
Actual Time 6:48 AM EST 4:33 PM EST
Civil Twilight 6:18 AM EST 5:03 PM EST
Nautical Twilight 5:45 AM EST 5:36 PM EST
Astronomical Twilight 5:12 AM EST 6:09 PM EST
Moon 7:14 PM EST (11/20) 9:11 AM EST (11/20)
Length of Visible Light 10h 44m
Length of Day
9h 44m
Waning Gibbous, 91% of the Moon is Illuminated
Nov 20
Waning Gibbous
Nov 25
Last Quarter
Dec 2
New
Dec 9
First Quarter
Dec 17
Full

Hourly Weather History & Observations

Time (EST) Temp. Windchill Dew Point Humidity Pressure Visibility Wind Dir Wind Speed Gust Speed Precip Events Conditions
12:51 AM 36.0 °F 28.0 °F 21.0 °F 55% 30.36 in 10.0 mi North 11.5 mph - N/A   Scattered Clouds
1:51 AM 35.1 °F 26.4 °F 19.9 °F 54% 30.38 in 10.0 mi North 12.7 mph - N/A   Mostly Cloudy
2:51 AM 35.1 °F 26.9 °F 21.9 °F 59% 30.39 in 10.0 mi North 11.5 mph - N/A   Mostly Cloudy
3:51 AM 34.0 °F 25.5 °F 21.9 °F 61% 30.42 in 10.0 mi North 11.5 mph 16.1 mph N/A   Mostly Cloudy
4:51 AM 34.0 °F 26.0 °F 19.9 °F 56% 30.45 in 10.0 mi North 10.4 mph - N/A   Scattered Clouds
5:51 AM 34.0 °F 27.2 °F 19.9 °F 56% 30.47 in 10.0 mi North 8.1 mph - N/A   Mostly Cloudy
6:51 AM 32.0 °F 21.6 °F 17.1 °F 54% 30.51 in 10.0 mi North 15.0 mph 19.6 mph N/A   Scattered Clouds
7:51 AM 33.1 °F 23.0 °F 18.0 °F 54% 30.52 in 10.0 mi North 15.0 mph 21.9 mph N/A   Mostly Cloudy
8:51 AM 34.0 °F 25.0 °F 18.0 °F 52% 30.55 in 10.0 mi NNE 12.7 mph 21.9 mph N/A   Mostly Cloudy
9:51 AM 35.1 °F 25.5 °F 14.0 °F 42% 30.56 in 10.0 mi North 15.0 mph - N/A   Mostly Cloudy
10:51 AM 37.9 °F 30.5 °F 12.9 °F 36% 30.57 in 10.0 mi North 11.5 mph - N/A   Mostly Cloudy
11:51 AM 41.0 °F 36.4 °F 10.0 °F 28% 30.56 in 10.0 mi Variable 6.9 mph - N/A   Mostly Cloudy
12:51 PM 43.0 °F 38.8 °F 12.0 °F 28% 30.55 in 10.0 mi NNE 6.9 mph - N/A   Mostly Cloudy
1:51 PM 43.0 °F 40.3 °F 10.0 °F 26% 30.55 in 10.0 mi NE 4.6 mph - N/A   Mostly Cloudy
2:51 PM 44.1 °F 42.5 °F 10.9 °F 26% 30.55 in 10.0 mi NE 3.5 mph - N/A   Mostly Cloudy
3:51 PM 43.0 °F 40.3 °F 12.0 °F 28% 30.55 in 10.0 mi ENE 4.6 mph - N/A   Scattered Clouds
4:51 PM 42.1 °F 39.2 °F 12.0 °F 29% 30.56 in 10.0 mi NE 4.6 mph - N/A   Clear
5:51 PM 42.1 °F 37.7 °F 12.9 °F 31% 30.57 in 10.0 mi NE 6.9 mph - N/A   Partly Cloudy
6:51 PM 41.0 °F 36.4 °F 16.0 °F 36% 30.58 in 10.0 mi NE 6.9 mph - N/A   Partly Cloudy
7:51 PM 41.0 °F 35.8 °F 15.1 °F 35% 30.59 in 10.0 mi NE 8.1 mph - N/A   Clear
8:51 PM 39.0 °F 32.8 °F 17.1 °F 41% 30.60 in 10.0 mi NE 9.2 mph - N/A   Clear
9:51 PM 37.9 °F 32.1 °F 19.0 °F 47% 30.61 in 10.0 mi NNE 8.1 mph - N/A   Clear
10:51 PM 37.9 °F 32.7 °F 19.9 °F 48% 30.61 in 10.0 mi NE 6.9 mph - N/A   Scattered Clouds
11:51 PM 37.9 °F 30.9 °F 21.0 °F 51% 30.61 in 10.0 mi ENE 10.4 mph - N/A   Mostly Cloudy